Gillette, WY (82716)

7:28 PM MDT on May 22, 2017 (GMT -0600)
McCann Heights, central Gillette | | Change Station

Elev 4590 ft 44.28 °N, 105.50 °W | Updated 7 minutes ago

Partly Cloudy
Partly Cloudy
46.9 °F
Feels Like 47 °F
N
0.0
Wind Variable Wind from West

Today
High -- | Low -- °F
--% Chance of Precip.
Yesterday
High -- | Low -- °F
Precip. -- in
Pressure 30.13 in
Visibility 10.0 miles
Clouds Few 10000 ft
Windchill 47 °F
Dew Point 40 °F
Humidity 78%
Rainfall 0.36 in
Snow Depth Not available.
5:27 AM 8:30 PM
Waning Crescent, 11% visible
METAR KGCC 230053Z AUTO 00000KT 10SM FEW100 12/06 A3016 RMK AO2 SLP201 T01170056
Pressure 30.13 in
Visibility 10.0 miles
Clouds Few 10000 ft
Windchill 47 °F
Dew Point 40 °F
Humidity 78%
Rainfall 0.36 in
Snow Depth Not available.
5:27 AM 8:30 PM
Waning Crescent, 11% visible
METAR KGCC 230053Z AUTO 00000KT 10SM FEW100 12/06 A3016 RMK AO2 SLP201 T01170056

Get Severe Weather Alerts

Thanks for signing up!

Be on the lookout for a verification email in your inbox.

You'll start receiving the daily forecast at 6 AM.

×

10-Day Weather Forecast

Almanac

Astronomy

May. 22, 2017 Rise Set
Actual Time
Civil Twilight
Nautical Twilight
Astronomical Twilight
Moon
Length of Visible Light
Length of Day
Tomorrow will be .
, % of the Moon is Illuminated

Today's Extremes

State Highs State Lows

Community

WunderPhotos

Category 6

Welcome to Category 6. This is the collective home for Weather Underground's featured writeups by Dr. Jeff Masters (right), Bob Henson (left), Chris Burt, and other regular contributors.

Nearby

Air Quality

  Air Quality AQ Index Pollutant
Not available.

Snow Depth

Station Depth Elevation

Earthquake Activity

City Distance Mag. Time & Date
Minimum magnitude displayed is 2.5.

Coastal Water Temperatures

Place Temperature

Stations

Nearby Weather Stations

Station Location Temp. Windchill Dew Point Humidity Wind Precip. Elev Updated Type
                   

Watches & Warnings

There are currently no watches in effect.